Location: Caltech
(34.1382°N, 118.1253°W)
Time: 09:45:39
(UTC-07:00)

Cosmos 2333 Rocket - Visible Passes

Search period start: 23 May 2018 00:00
Search period end: 02 June 2018 00:00
Orbit: 841 x 861 km, 70.8° (Epoch: 22 May)

Date Brightness Start Highest point End Pass type
(mag) Time Alt. Az. Time Alt. Az. Time Alt. Az.
23 May 3.7 00:36:36 10° NNW 00:39:40 31° NW 00:39:40 31° NW visible
23 May 3.9 22:41:15 10° NNE 22:45:20 20° ENE 22:45:38 20° ENE visible
24 May 3.6 00:24:20 10° NNW 00:27:38 33° NW 00:27:38 33° NW visible
24 May 3.9 22:28:59 10° NNE 22:33:04 20° ENE 22:33:37 19° ENE visible
25 May 3.4 00:12:04 10° NNW 00:15:37 36° NW 00:15:37 36° NW visible
25 May 3.9 22:16:43 10° NNE 22:20:48 20° ENE 22:21:38 19° ENE visible
25 May 3.3 23:59:49 10° NNW 00:03:39 39° WNW 00:03:39 39° WNW visible
26 May 3.8 22:04:27 10° NNE 22:08:32 20° ENE 22:09:41 19° ENE visible
26 May 3.1 23:47:33 10° NNW 23:51:42 42° WNW 23:51:42 42° WNW visible
27 May 3.8 21:52:11 10° NNE 21:56:17 20° ENE 21:57:46 18° ENE visible
27 May 3.0 23:35:18 10° NNW 23:39:47 46° WNW 23:39:47 46° WNW visible
28 May 3.8 21:39:55 10° NNE 21:44:01 20° ENE 21:45:53 17° E visible
28 May 2.8 23:23:01 10° NNW 23:27:54 49° W 23:27:54 49° W visible
29 May 3.9 21:27:40 10° NNE 21:31:45 20° ENE 21:34:02 16° E visible
29 May 2.7 23:10:46 10° NNW 23:16:02 52° W 23:16:02 52° W visible
30 May 3.9 21:15:24 10° NNE 21:19:29 20° ENE 21:22:13 15° E visible
30 May 2.6 22:58:30 10° NNW 23:04:02 52° WSW 23:04:14 52° WSW visible
31 May 3.8 21:03:08 10° NNE 21:07:14 20° ENE 21:10:26 13° E visible
31 May 2.6 22:46:15 10° NNW 22:51:47 52° WSW 22:52:27 49° SW visible
01 Jun 3.8 20:50:53 10° NNE 20:54:59 20° ENE 20:58:42 11° E visible
01 Jun 2.7 22:33:59 10° NNW 22:39:31 52° WSW 22:40:43 44° SW visible
